User: anonymous   Login
Location: ????????
(55.0808°N, 38.5463°E)
Time: 20:36:50
(UTC+00:00)
Language:

ATLAS 3B R/B - Orbit

View from above orbital plane
View from above orbital plane
View from above satellite
View from above satellite

Ground track
Ground track

The orbit data is extracted from the following two-line orbital elements,

1 28538U 05004B   24165.59978771 -.00000006  00000-0  12426-3 0  9991
2 28538  63.8257 338.9470 0206923 296.8967  61.1049 13.43259541  6624
Epoch (UTC): 13 June 2024 14:23:41
Eccentricity: 0.0206923
inclination: 63.8257°
perigee height: 942 km
apogee height: 1252 km
right ascension of ascending node: 338.9470°
argument of perigee: 296.8967°
revolutions per day: 13.43259541
mean anomaly at epoch: 61.1049°
orbit number at epoch: 662

The dashed part of the orbit path shows where the satellite is in the earth's shadow,  

DLR